AirNav   Everest Fuels
 
 922 users online  

MU61 Belton Regional Medical Center Heliport
Belton, Missouri, USA

GOING TO BELTON?


FAA INFORMATION EFFECTIVE 18 JUNE 2020

Location

FAA Identifier: MU61
Lat/Long: 38-48-59.9300N 094-30-12.8900W
38-48.998833N 094-30.214833W
38.8166472,-94.5035806
(estimated)
Elevation: 1070 ft. / 326 m (estimated)
Variation: 05E (1980)
From city: 5 miles E of BELTON, MO
Time zone: UTC -5 (UTC -6 during Standard Time)
Zip code: 64012

Heliport Operations

Heliport use: Private use, MEDICAL.
Activation date: 10/1986
Control tower: no
ARTCC: KANSAS CITY CENTER
FSS: COLUMBIA FLIGHT SERVICE STATION
Attendance: UNATNDD
Wind indicator: yes
Segmented circle: no
Lights: FOR PERIMETER LGTS CALL 816-348-1200.

Heliport Communications

WX ASOS at LXT (11 nm NE): 124.175 (816-347-9807)
WX ASOS at OJC (11 nm W): 119.35 (913-780-6969)
WX AWOS-3PT at LRY (14 nm SE): 119.975 (816-380-5936)
WX ASOS at IXD (18 nm W): 135.325 (913-780-6987)
WX ASOS at MKC (19 nm N): PHONE 816-329-2843

Nearby radio navigation aids

VOR radial/distance  VOR name  Freq  Var
ANXr219/24.2NAPOLEON VORTAC114.0007E
MCIr154/30.1KANSAS CITY VORTAC113.2505E
BUMr352/32.7BUTLER VORTAC115.9007E

 
NDB name  Hdg/Dist  Freq  Var  ID
HERBB067/11.642004EPK .--. -.-

Heliport Services

Runway Information

Helipad H1

Dimensions: 40 x 40 ft. / 12 x 12 m
Surface: concrete
Runway edge lights: PERI
Latitude: 38-48.998833N
Longitude: 094-30.214833W
Elevation: 1070.0 ft.
Traffic pattern: leftleft

Heliport Ownership and Management from official FAA records

Ownership: Privately-owned
Owner: BELTON REGIONAL MEDICAL CENTER
17065 SOUTH 71 HWY
BELTON, MO 64012
Phone 816-348-1200
Manager: BERNIE SWANNER
17065 SOUTH 71 HWY
BELTON, MO 64012
Phone 816-348-1200

Additional Remarks

FOR CD CTC KANSAS CITY APCH AT 816-329-2710.

Instrument Procedures

There are no published instrument procedures at MU61.

Some nearby airports with instrument procedures:

KLXT - Lee's Summit Municipal Airport (11 nm NE)
KOJC - Johnson County Executive Airport (11 nm W)
KLRY - Lawrence Smith Memorial Airport (14 nm SE)
3GV - East Kansas City Airport (18 nm NE)
KIXD - New Century AirCenter Airport (18 nm W)
KMKC - Charles B Wheeler Downtown Airport (19 nm N)
 
Loc | Ops | Rwys | IFR | FBO | Links
Com | Nav | Svcs | Stats | Notes
Area around MU61 (Belton Regional Medical Center Heliport)
 
Road maps at: MapQuest Bing Google
 
Aerial photo
No photo
 
Sectional chart

 
Airport distance calculator
Flying to Belton Regional Medical Center Heliport? Find the distance to fly.

From to MU61

Sunrise and sunset
Times for 13-Jul-2020
 Local
(UTC-5)
 Zulu
(UTC)
Morning civil twilight05:3410:34
Sunrise06:0511:05
Sunset20:4201:42
Evening civil twilight21:1302:13

Current date and time
Zulu (UTC)  14-Jul-2020 02:41:36
Local (UTC-5)  13-Jul-2020 21:41:36
 
METAR
KOJC 
11nm W 
140153Z 17006KT 10SM CLR 26/20 A2988 RMK AO2 SLP107 T02610200
KLXT 
11nm NE 
140153Z AUTO 14010KT 10SM CLR 29/18 A2989 RMK AO2 SLP111 T02940178
KLRY 
14nm SE 
140215Z AUTO 15003KT 10SM CLR 27/18 A2992 RMK AO2
KIXD 
18nm W 
140153Z 15007KT 10SM CLR 28/18 A2988 RMK AO2 SLP107 T02780178
KMKC 
19nm N 
140154Z 13009KT 10SM CLR 31/17 A2986 RMK AO2 SLP101 T03060167
TAF
KIXD 
18nm W 
131723Z 1318/1418 16014KT P6SM SKC
KMKC 
19nm N 
131723Z 1318/1418 17010KT P6SM SKC
NOTAMs
Click for the latest NOTAMs
NOTAMs are issued by the DoD/FAA and will open in a separate window not controlled by AirNav.

 

 
 

Would you like to see your business listed on this page?

 If your business provides an interesting product or service to pilots, flight crews, aircraft, or users of the Belton Regional Medical Center Heliport, you should consider listing it here.  To start the listing process, click on the button below
 
Add a business
 

Other Pages about Belton Regional Medical Center Heliport

Update a link
 
Copyright © AirNav, LLC. All rights reserved. Privacy Policy  Contact